Regional Weather Roundup
Issued by NWS Midland/Odessa, TX

Home | Current Version | Previous Version | Text Only | Print | Product List | Glossary On
Versions: 1 2 3 4 5 6 7 8 9 10 11 12 13 14 15 16 17 18 19 20 21 22 23 24 25 26 27 28 29 30 31 32 33 34 35 36 37 38 39 40 41 42 43 44 45 46 47 48 49 50
000
ASUS44 KMAF 040601
RWRMAF
MIDLAND AREA WEATHER ROUNDUP
NATIONAL WEATHER SERVICE MIDLAND TX
100 AM CDT FRI SEP 04 2015

...IN SOUTHWEST TEXAS AND SOUTHEAST NEW MEXICO...

CITY           SKY/WX    TMP DP  RH WIND       PRES   REMARKS
ALPINE         CLEAR     74  53  47 S6        30.11S
ANDREWS        FAIR      72  53  51 SE3       29.98R
ARTESIA        MOCLDY    81  48  32 S16       29.96F
BIG SPRING     CLEAR     78  54  43 SE12      29.96S
CARLSBAD       PTCLDY    82  47  29 S8        29.95F
DRYDEN           N/A     79  55  43 NW6       29.91S
FORT STOCKTON  CLEAR     75  50  41 S8        29.95F
GUAD PASS      MOCLDY    76  45  33 VRB3      30.12F
HOBBS            N/A     73  50  43 S7        30.00S
MARFA          PTCLDY    72  52  49 E3        30.10S
MIDLAND AIRPK  PTCLDY    81  54  38 SE10      29.96S
MIDLAND INTL   PTCLDY    77  54  44 SE8       29.94F
ODESSA         PTCLDY    77  51  40 SE8       29.96S
PECOS          CLEAR     77  48  35 SE7       29.92S
PRESIDIO       FAIR      86  53  32 MISG      29.91F
SEMINOLE       PTCLDY    72  50  47 SW3       29.99S
SNYDER         CLEAR     77  58  52 SE8       29.95S
WINK           CLEAR     77  52  41 SE5       29.92F
$$
...OTHER STATIONS IN TEXAS...

CITY           SKY/WX    TMP DP  RH WIND       PRES   REMARKS
ABILENE        PTCLDY    77  63  61 SE9       29.93S
AMARILLO       CLOUDY    79  55  43 S14       29.97F
AUSTIN         PTCLDY    77  71  82 SE7       29.90S
BROWNSVILLE    CLEAR     80  77  90 SE5       29.88S
CORPUS CHRISTI PTCLDY    80  75  84 S7        29.88R
DALLAS FTW     PTCLDY    83  67  58 SE8       29.89S
DEL RIO        CLEAR     83  65  54 E14       29.86R
EL PASO        CLOUDY    82  53  36 W8        29.99F
HOUSTON INT    PTCLDY    76  74  93 E3        29.89F
LUBBOCK        MOCLDY    75  54  47 SE12      29.97F
SAN ANGELO     PTCLDY    76  59  55 S5        29.91F
SAN ANTONIO    MOCLDY    79  71  76 SE7       29.92R
WACO           CLEAR     81  70  69 S9        29.90R
WICHITA FALLS  NOT AVBL
$$
...OTHER LOCATIONS IN NEW MEXICO...

CITY           SKY/WX    TMP DP  RH WIND       PRES   REMARKS
ALAMAGORDO     PTCLDY    75  50  41 CALM      30.02F
ALBUQUERQUE    CLOUDY    75  48  38 S8        30.10S
CANNON AFB     MOCLDY    75  51  43 S8        30.01F
CLOVIS         MOCLDY    73  50  43 S7        30.03S
HOLLOMAN AFB   PTCLDY    75  52  43 NE2       30.00S
ROSWELL        MOCLDY    81  47  30 S15       29.95S
RUIDOSO        MOCLDY    64  46  52 W5        30.22F
SANTA FE       PTCLDY    70  43  37 W14       30.13F
TRUTH OR CONSE CLOUDY    69  56  62 NW13      30.05F
TUCUMCARI      PTCLDY    78  49  35 S12       29.96R
$$




USA.gov is the U.S. government's official web portal to all federal, state and local government web resources and services.